RH
94 90 100 99 100 99 100 100 100 100 87 100 99 98 94 98 98 98 98 99 98 96 84 67 67 78 71 78 84 99 99 99 100 100 100 99 100 89 75 54 52 45 38 38
98 99 100 100 100 100 100 100 100 100 100 100 99 97 100 98 98 98 98 98 98 93 69 64 68 69 75 89 85 96 96 75 98 100 99 99 99 90 83 70 65 48 38 39
90 99 96 100 100 100 100 100 99 99 94 99 98 100 98 98 98 98 98 98 98 96 67 62 65 72 81 83 78 83 100 88 60 53 65 80 88 80 78 76 63 50 46 41
99 95 90 100 100 100 100 100 98 98 99 96 95 100 98 99 99 99 99 99 98 90 68 64 76 82 84 75 72 98 99 73 64 62 64 69 78 84 68 71 66 56 47 46
98 99 99 100 100 100 100 100 100 98 73 100 99 97 97 99 99 99 98 99 98 85 62 61 71 84 82 93 83 94 99 78 67 58 63 65 62 72 79 75 66 62 57 49
100 99 96 97 100 100 100 100 100 99 91 97 100 99 96 99 99 99 99 98 96 83 56 59 72 86 82 89 66 88 98 89 70 54 60 63 62 57 58 65 72 65 57 52
99 100 98 94 100 100 97 99 100 100 91 74 83 90 93 99 100 100 99 100 98 82 80 73 97 84 88 92 94 88 95 83 83 75 64 68 49 48 49 53 52 56 60 58
98 99 94 99 100 100 89 100 100 99 85 63 84 85 100 100 100 100 99 99 96 99 97 100 100 99 98 99 100 97 95 81 82 76 59 55 56 55 54 52 47 43 52 57
98 98 68 79 100 99 92 97 100 99 86 50 69 90 100 100 100 99 98 88 98 87 98 98 97 98 99 99 100 98 97 98 87 82 73 68 50 48 50 52 54 47 44 42
92 98 93 78 99 93 87 95 99 99 96 31 83 93 100 99 99 99 100 95 94 91 100 99 99 100 95 99 98 99 100 99 97 99 82 67 56 54 44 54 48 41 40 43
98 98 77 81 90 88 86 96 99 99 64 51 84 98 89 85 96 98 99 100 97 94 99 96 94 99 98 94 96 99 97 99 99 99 98 92 60 50 53 44 38 36 34 33
100 98 74 99 98 89 84 99 99 99 42 54 95 93 81 96 98 99 99 99 100 100 99 95 90 91 96 84 89 96 94 90 84 87 76 60 58 54 53 50 51 44 42 49
99 100 81 100 99 88 82 99 99 99 38 69 82 62 73 92 92 90 100 99 99 99 98 100 99 86 91 92 77 77 81 76 76 63 58 59 59 60 48 50 53 50 54 56
98 94 94 100 95 88 79 96 99 94 55 82 78 71 65 79 80 90 96 99 93 99 100 100 99 98 80 90 78 67 69 67 67 63 68 57 56 51 44 50 54 60 60 62
100 99 94 94 87 86 79 99 99 96 61 68 70 74 64 60 62 83 78 99 91 86 88 93 84 75 62 59 60 58 62 55 54 61 59 60 57 56 54 53 55 55 64 67
97 98 76 92 87 82 97 100 99 99 78 71 65 67 67 58 58 56 75 67 78 82 77 76 75 70 58 60 65 51 57 58 57 56 61 63 62 58 60 59 60 67 74 77
99 84 86 91 92 80 99 98 98 99 99 96 87 64 56 60 57 58 58 58 61 60 68 67 65 65 67 72 63 48 55 68 71 71 74 67 65 60 60 69 72 79 83 75
98 100 94 97 89 96 100 99 99 98 99 99 98 93 75 60 61 61 59 65 64 67 73 71 67 68 77 74 59 65 54 55 71 71 71 74 72 63 67 80 84 86 81 67
98 94 93 100 87 100 99 99 99 100 99 98 98 98 82 82 73 78 92 74 81 74 80 79 73 79 61 42 36 36 43 53 56 69 77 85 80 72 75 88 89 87 66 38
98 97 100 100 90 100 100 98 99 95 100 99 98 88 81 81 97 100 99 99 92 94 84 77 87 65 41 42 46 57 65 67 68 80 86 83 81 81 72 74 68 48 41 38
98 97 95 96 100 96 97 98 84 99 87 93 97 97 85 88 93 100 100 99 98 96 92 92 96 64 49 52 63 70 80 81 82 92 88 66 84 85 65 60 52 44 39 26
98 98 98 99 99 98 94 94 77 67 85 81 80 85 87 75 100 99 97 92 85 87 89 92 70 45 40 39 42 80 100 93 91 83 72 76 85 85 74 54 47 40 26 23
98 98 97 97 96 91 88 85 71 54 48 42 43 72 91 70 98 93 92 86 82 81 75 74 45 32 26 24 37 64 100 100 99 79 85 71 70 65 58 48 42 26 25 29
97 97 97 78 78 67 71 67 58 47 42 40 39 65 78 74 89 76 73 70 74 71 72 40 30 30 29 28 43 84 98 97 92 96 69 56 58 54 48 38 28 31 34 33
96 96 79 73 81 72 65 62 58 52 46 43 48 70 64 70 70 62 57 62 63 54 39 32 29 28 30 38 76 99 99 97 97 86 81 60 52 47 32 34 39 37 32 28
96 95 91 69 74 71 64 59 51 54 50 53 73 81 73 68 58 54 51 53 38 32 28 26 25 28 35 52 97 99 98 97 97 96 94 65 36 37 43 35 30 29 28 27
96 96 94 86 78 67 60 59 54 56 60 66 74 71 65 64 60 57 48 41 35 27 25 24 30 39 42 58 100 99 98 98 96 58 35 41 42 32 32 31 30 28 26 20
Wind_Speed
35 29 24 27 22 21 23 21 22 20 17 22 30 37 34 39 31 17 23 23 21 25 24 27 24 21 18 20 19 24 14 8 6 10 13 23 18 24 16 14 6 5 5 6
31 28 26 29 24 23 24 23 22 18 17 23 31 31 37 36 32 19 18 22 25 16 24 25 22 20 19 12 25 16 11 3 6 8 10 15 18 15 24 14 4 15 8 7
31 31 31 29 25 24 22 25 15 18 22 28 25 28 33 35 33 33 25 26 21 18 24 22 22 19 17 14 25 18 8 6 10 4 6 20 18 20 19 22 18 14 18 6
37 30 29 28 26 25 22 27 22 22 19 25 17 23 30 24 20 13 14 21 23 23 26 27 17 20 17 21 28 23 8 7 11 7 3 9 17 22 23 27 26 19 20 19
36 32 30 32 25 25 29 29 27 22 23 17 20 18 27 29 29 22 20 15 24 25 26 31 23 24 23 16 27 26 16 7 5 12 9 10 12 19 24 29 29 28 21 18
38 26 28 30 27 29 30 30 27 21 16 12 16 19 22 11 8 11 17 18 25 26 23 25 13 20 23 12 31 31 25 11 5 9 8 8 16 27 25 24 30 27 32 29
36 33 30 29 27 27 27 29 26 26 22 15 17 21 23 9 10 10 12 15 23 21 21 24 17 19 19 11 20 26 33 21 7 4 7 8 9 10 22 29 27 26 28 22
33 39 34 29 26 25 25 25 25 25 19 14 15 18 15 10 5 11 20 25 27 21 14 25 24 17 15 18 20 22 29 24 12 7 12 9 13 15 16 23 26 29 26 23
19 31 27 28 24 23 24 23 25 24 17 12 15 16 9 10 8 16 24 27 24 26 19 24 11 10 11 12 17 30 28 23 23 11 5 4 5 9 13 10 18 16 17 26
30 33 23 25 22 22 22 24 25 22 20 17 10 14 10 5 10 14 23 25 28 24 21 15 12 7 20 12 18 24 29 26 22 14 8 9 13 12 4 8 3 4 11 16
31 32 28 25 23 22 22 24 24 22 18 13 15 9 7 11 6 7 17 30 30 32 23 14 6 7 13 7 20 27 26 17 17 16 10 9 8 9 10 8 7 5 5 9
33 29 29 23 22 22 22 24 22 19 18 13 11 9 11 12 9 12 21 28 34 26 22 16 11 8 16 12 11 22 20 20 12 17 21 14 12 12 13 17 14 10 8 8
36 30 29 21 23 23 24 24 20 18 18 16 13 12 11 13 8 8 19 29 14 31 29 18 15 8 16 12 9 19 25 26 23 18 23 24 18 16 13 12 11 8 8 9
32 31 28 26 23 24 22 25 20 19 16 18 13 13 11 13 11 7 4 15 8 4 21 17 12 13 13 13 8 14 23 23 30 34 27 14 17 16 13 12 11 10 9 10
35 31 29 25 23 23 23 25 20 20 20 12 19 16 14 12 13 12 9 14 10 9 9 8 9 9 6 12 16 18 19 20 23 21 22 20 13 11 12 13 13 12 11 12
33 30 29 25 24 21 26 23 25 27 24 13 12 18 18 14 13 15 16 15 17 17 14 16 16 14 12 8 13 14 13 14 17 17 13 13 12 12 15 17 17 17 16 15
38 31 29 26 26 25 31 17 21 22 28 24 8 9 21 19 17 16 17 17 17 17 18 19 16 13 16 19 17 10 13 14 15 15 14 13 11 11 15 19 19 17 16 15
34 30 28 26 25 29 26 23 22 17 26 22 11 9 15 20 22 19 18 18 17 18 18 18 19 19 21 21 23 23 19 16 18 18 16 14 13 12 16 18 20 19 16 14
36 32 29 25 29 34 20 18 19 21 23 10 9 9 10 12 20 23 17 18 18 16 19 23 18 23 17 17 22 23 21 20 20 22 20 18 16 15 16 18 19 18 17 14
38 39 29 29 32 36 26 21 17 21 24 21 11 15 16 11 17 18 18 14 16 9 18 18 25 37 33 31 29 22 14 16 18 20 19 18 19 17 18 18 19 17 14 11
42 44 40 34 30 24 26 12 15 14 13 20 32 23 17 18 15 20 16 8 8 6 10 11 9 26 27 27 35 35 25 18 19 19 18 15 12 15 19 18 16 14 12 9
47 46 34 32 32 16 14 14 12 12 17 12 26 33 26 15 16 13 15 8 7 6 7 8 9 27 20 18 17 30 30 23 20 19 17 14 16 19 18 17 16 13 10 9
41 41 28 30 20 16 14 19 16 18 10 20 16 26 28 18 18 11 9 10 8 5 7 7 12 9 9 11 16 21 28 26 20 21 16 17 15 17 17 15 11 9 9 12
35 29 22 17 15 18 18 27 26 23 15 15 22 27 26 20 22 9 8 9 6 6 8 10 14 13 14 13 14 19 23 24 25 21 20 16 18 17 13 10 9 10 12 15
18 19 21 28 20 21 22 13 20 23 19 14 22 27 17 22 9 10 9 9 7 10 10 12 11 13 13 13 17 22 23 25 21 24 18 17 15 12 9 8 10 13 17 17
13 10 18 31 24 18 18 26 22 22 25 24 27 20 10 11 8 11 10 7 7 7 7 8 9 10 13 18 24 25 24 21 21 21 17 14 10 7 8 11 14 16 17 18
8 12 14 22 26 19 18 24 25 21 25 33 19 15 11 9 9 10 11 10 8 6 7 8 10 11 14 21 27 25 22 22 17 15 11 7 7 9 11 14 16 18 18 18
Wind_Direction
205 209 221 233 227 217 232 237 238 254 246 219 228 239 258 262 268 234 245 238 218 206 196 198 201 213 211 201 201 202 200 210 124 141 151 181 189 196 188 196 182 253 331 105
198 209 220 229 225 213 226 231 234 243 235 231 243 260 264 261 265 255 234 234 218 194 195 197 206 212 217 219 198 200 161 217 120 155 125 161 191 200 206 211 216 212 226 124
197 209 220 227 221 212 221 223 229 229 239 245 249 262 271 271 281 266 256 254 204 185 193 193 203 204 206 197 199 180 190 271 215 140 176 185 189 198 200 205 217 218 217 156
201 206 218 231 215 212 207 220 233 235 228 243 258 270 263 266 281 265 234 226 207 182 188 192 201 192 196 207 192 181 180 246 217 233 191 189 202 203 209 213 222 228 235 230
193 205 206 220 212 208 210 218 226 239 251 264 268 274 275 284 271 239 223 202 198 188 192 191 191 189 191 186 191 204 209 219 205 222 225 209 213 221 225 223 231 234 235 239
189 195 218 229 212 210 209 218 231 241 246 252 250 268 292 292 266 224 225 201 176 190 194 195 186 196 183 214 200 199 200 207 211 226 210 219 243 229 226 229 230 231 232 239
184 192 207 220 213 214 217 219 227 245 248 247 251 269 291 276 223 217 192 174 177 185 198 197 183 185 198 219 212 214 196 198 207 242 168 218 249 236 232 229 236 238 238 237
190 188 201 214 211 213 219 214 226 240 246 251 257 267 275 196 196 172 164 166 175 181 197 143 147 167 170 204 190 192 199 204 220 213 223 265 284 256 241 221 241 241 239 233
188 197 213 203 210 209 221 207 221 242 244 253 252 273 239 203 187 164 168 173 172 179 164 152 159 174 181 186 185 195 199 209 216 203 229 239 259 260 257 233 255 255 244 236
192 192 208 214 212 209 219 205 217 234 239 236 262 265 212 208 199 191 178 183 186 190 184 184 162 159 183 191 186 181 186 201 210 208 228 260 261 269 250 188 240 248 225 227
194 183 193 208 211 207 216 204 212 232 230 224 236 229 222 215 223 256 208 185 188 189 189 189 168 168 187 186 193 194 195 176 190 199 214 263 240 239 207 221 255 282 268 244
189 192 191 197 206 203 213 207 211 228 224 219 213 247 234 206 227 278 202 191 189 186 193 195 186 173 181 177 176 190 203 200 191 198 219 239 246 253 250 249 264 280 273 228
191 186 194 192 202 202 210 205 213 215 218 216 219 239 217 201 208 291 195 189 196 201 199 188 179 172 183 185 205 196 206 213 218 226 238 243 254 256 255 252 256 248 210 194
186 190 189 196 195 201 205 201 209 202 209 217 225 231 220 204 201 216 178 180 159 223 199 214 184 167 184 201 203 195 210 212 222 234 239 244 250 247 243 240 237 232 219 202
192 186 193 193 193 198 197 203 205 197 197 219 223 223 223 213 195 192 188 194 182 214 213 200 202 189 193 210 218 229 228 230 230 237 243 244 240 236 233 233 232 223 210 214
181 189 190 191 189 195 181 216 212 196 202 215 210 218 218 217 203 197 198 200 208 215 218 227 232 234 233 233 229 233 227 230 233 236 230 223 227 231 229 227 222 218 222 235
181 186 188 189 186 188 190 210 220 206 207 200 202 202 214 219 223 209 203 206 208 216 223 232 236 234 228 235 235 237 230 221 215 215 235 234 245 246 237 229 225 227 236 244
176 180 186 185 185 176 200 215 214 218 202 203 201 210 197 213 217 218 217 214 215 222 227 236 237 239 238 246 247 242 242 230 227 229 229 245 241 234 226 225 229 234 237 243
175 178 180 183 185 186 198 199 211 217 209 203 190 186 200 212 221 218 217 222 225 236 236 235 240 239 234 249 257 255 251 246 242 234 243 252 242 232 223 220 222 233 226 225
174 179 181 191 193 188 204 216 218 218 225 233 219 221 215 220 216 210 214 228 232 247 250 249 248 248 247 251 256 257 239 236 228 228 237 243 242 231 215 214 209 208 214 223
174 178 185 192 190 187 192 197 198 203 218 234 226 228 227 224 218 205 197 207 211 234 235 228 249 261 261 249 243 244 241 229 219 212 212 213 199 217 206 204 207 206 217 232
179 184 175 180 177 178 183 193 201 207 209 218 214 220 217 212 186 182 198 201 211 240 223 220 246 257 261 246 233 229 227 222 217 220 221 208 194 191 197 201 200 211 228 252
175 174 170 167 168 188 200 192 190 196 199 207 205 197 202 195 185 189 183 199 222 218 216 236 249 249 241 241 224 211 206 208 220 212 211 182 192 199 195 195 210 232 256 276
167 168 163 175 194 210 209 209 214 206 193 195 193 189 180 181 180 171 195 203 207 229 231 239 258 257 242 233 211 182 189 197 198 196 185 189 179 182 192 214 238 263 281 292
170 170 189 197 202 201 195 187 200 202 204 209 186 188 187 178 171 189 195 192 214 224 235 244 245 239 223 211 185 175 185 190 188 186 187 184 184 194 217 252 278 289 294 295
168 186 199 203 201 201 202 207 216 203 198 183 176 186 183 184 196 192 193 196 221 237 238 229 225 205 190 179 172 177 183 191 191 195 191 183 199 228 268 286 291 292 293 294
190 196 192 195 200 195 189 196 204 199 202 186 181 185 184 186 196 195 193 213 223 229 224 216 190 177 176 171 168 174 182 184 180 167 179 207 247 274 287 293 294 294 294 295